Wetbulb
46.81 47.90 49.62 51.29 60.10 60.28 59.93 59.99 60.32 59.51 59.29 59.47 59.81 59.29 59.01 58.71 57.71 56.57 55.42 55.00 54.94 53.45
46.78 47.98 48.83 50.22 52.27 59.85 60.49 60.17 60.38 60.10 59.47 59.11 59.04 59.02 58.74 58.10 57.36 57.12 57.03 55.43 54.71 54.49
45.59 47.81 49.76 51.22 51.72 56.14 59.66 59.47 59.17 59.27 60.02 59.69 59.17 58.66 58.28 57.81 57.94 57.47 56.54 56.28 55.39 54.85
44.27 46.61 49.31 53.60 53.87 55.79 59.24 59.09 58.62 59.33 59.43 58.88 58.74 58.16 57.77 57.68 57.81 56.83 56.56 56.48 55.56 54.78
41.71 43.42 44.95 46.78 48.98 55.70 52.08 51.23 50.73 50.03 48.50 47.01 47.13 48.15 49.72 50.49 51.20 51.52 49.86 49.40 49.05 46.71
38.47 39.61 40.54 41.96 43.91 46.23 45.65 44.52 44.06 42.89 41.61 40.90 41.25 42.70 44.45 45.79 45.91 45.36 44.45 44.00 42.74 41.93
35.46 36.27 37.53 39.08 39.45 41.11 41.67 40.67 40.10 39.41 38.94 38.96 38.61 39.44 41.16 41.32 41.43 41.29 40.66 41.07 40.69 39.81
34.78 34.89 34.99 35.60 36.25 37.34 37.45 37.52 38.04 38.13 37.92 38.47 38.13 37.97 39.29 39.01 38.82 38.70 38.41 38.63 38.94 37.76
33.46 33.05 33.13 33.08 33.59 34.16 34.11 34.48 35.14 35.75 35.95 35.29 36.66 37.01 36.93 38.30 37.96 37.60 37.11 36.32 36.80 36.34
32.20 31.70 32.25 31.97 31.57 31.42 32.32 33.01 32.34 33.99 34.44 34.03 34.90 35.51 35.65 35.82 36.26 35.71 35.16 34.46 34.40 34.22
32.17 31.29 31.81 30.96 30.12 30.28 30.63 30.61 30.70 31.34 32.78 33.12 33.70 34.04 33.99 34.21 35.14 34.48 33.73 33.71 33.71 33.72
31.72 30.72 30.77 29.57 29.97 30.19 30.10 29.75 29.22 29.87 30.74 31.75 32.16 33.62 32.95 33.18 33.42 32.98 32.65 32.55 32.90 33.09
31.14 30.27 28.81 29.34 29.08 29.35 29.41 28.47 28.85 28.38 29.38 29.73 31.16 32.78 32.85 32.18 31.86 31.25 31.12 31.35 31.20 31.20
30.07 29.41 29.68 29.12 29.14 28.98 28.57 28.26 28.07 27.77 28.10 28.39 29.68 30.74 31.94 31.93 30.22 29.90 29.93 29.13 28.88 29.99
MSLP
1020.39 1019.75 1019.00 1018.39 1017.42 1017.37 1017.60 1017.92 1018.19 1018.61 1018.82 1018.86 1019.26 1019.80 1019.88 1020.08 1020.48 1020.79 1020.69 1021.22 1021.38 1021.49
1020.23 1019.62 1019.01 1018.49 1018.06 1017.23 1017.45 1017.64 1017.86 1018.04 1018.37 1018.61 1018.77 1018.87 1019.17 1019.26 1019.63 1019.97 1020.29 1020.38 1020.68 1020.92
1020.29 1019.62 1018.92 1018.30 1017.94 1017.57 1017.30 1017.42 1017.69 1017.82 1018.07 1018.26 1018.44 1018.54 1018.82 1019.01 1019.15 1019.25 1019.63 1019.82 1020.13 1020.17
1020.61 1019.86 1019.01 1017.97 1017.67 1017.42 1017.22 1017.36 1017.58 1017.78 1018.02 1018.30 1018.42 1018.50 1018.66 1018.72 1018.82 1019.03 1019.02 1019.33 1019.46 1019.71
1021.02 1020.27 1019.57 1018.85 1018.35 1017.47 1017.75 1017.87 1018.03 1018.27 1018.68 1019.17 1019.37 1019.51 1019.37 1019.35 1019.31 1019.36 1019.67 1019.97 1020.04 1020.45
1021.69 1020.97 1020.42 1019.98 1019.46 1019.03 1018.90 1019.03 1019.40 1019.55 1019.87 1020.36 1020.41 1020.47 1020.44 1020.49 1020.57 1020.57 1020.89 1021.12 1021.45 1021.51
1022.53 1021.92 1021.37 1021.03 1020.70 1020.63 1020.43 1020.17 1020.51 1020.79 1021.05 1021.46 1021.46 1021.40 1021.34 1021.43 1021.50 1021.65 1021.85 1022.10 1022.33 1022.40
1023.42 1022.86 1022.48 1022.00 1021.85 1021.93 1022.02 1021.98 1021.84 1021.69 1021.88 1022.16 1022.19 1022.36 1022.20 1022.27 1022.23 1022.51 1022.72 1022.97 1023.09 1023.34
1024.25 1023.60 1023.39 1023.20 1023.21 1023.07 1023.29 1023.48 1023.25 1023.20 1023.07 1022.83 1023.07 1023.44 1023.15 1022.86 1022.98 1023.27 1023.44 1023.63 1023.56 1023.51
1025.13 1024.64 1024.43 1024.13 1023.84 1024.22 1024.61 1024.61 1024.11 1024.95 1024.13 1024.05 1023.81 1024.15 1023.95 1023.73 1023.76 1023.91 1024.18 1024.33 1023.70 1023.71
1025.80 1025.57 1025.36 1024.91 1024.03 1025.37 1025.13 1025.98 1026.48 1025.90 1025.34 1024.95 1024.72 1024.82 1024.44 1024.58 1024.50 1024.70 1024.88 1024.74 1024.48 1024.45
1026.56 1026.58 1026.06 1025.55 1025.85 1026.75 1026.73 1026.64 1026.67 1026.43 1026.42 1025.92 1025.93 1025.33 1024.85 1024.99 1025.05 1025.18 1025.07 1025.38 1025.36 1025.01
1027.01 1027.16 1026.90 1027.00 1027.00 1027.13 1027.16 1027.39 1027.45 1027.30 1027.04 1026.92 1026.47 1025.81 1025.60 1025.46 1025.53 1025.25 1025.67 1025.81 1025.75 1025.51
1027.84 1027.61 1027.33 1027.38 1027.58 1027.74 1027.80 1027.83 1027.77 1027.68 1027.92 1027.81 1027.45 1027.12 1026.65 1026.26 1026.13 1025.98 1026.24 1026.11 1026.20 1026.18
Wind_Speed
11 7 7 8 6 6 7 8 9 10 10 11 11 12 11 8 9 10 11 14 10 8
10 10 9 11 8 6 7 5 7 10 11 10 9 10 10 8 10 10 10 12 11 10
11 11 11 10 9 8 6 6 8 9 11 10 9 9 9 8 9 10 9 8 10 10
9 10 11 9 9 8 7 8 8 7 7 5 6 5 6 8 8 8 8 6 7 9
10 9 9 9 9 7 7 9 8 9 9 9 9 9 8 8 8 7 7 6 7 7
11 11 12 11 11 11 10 11 11 12 12 10 10 9 9 9 8 9 9 9 9 9
11 12 11 12 13 11 10 12 12 12 12 11 11 9 8 9 8 9 10 9 9 9
9 10 11 13 13 13 13 12 11 13 12 12 11 8 7 9 9 8 9 9 9 10
10 10 11 11 13 12 12 12 13 12 12 12 9 16 15 9 10 10 9 8 8 8
10 9 9 10 14 14 11 8 14 9 14 12 13 16 16 12 9 9 9 8 9 8
10 10 8 11 15 11 10 10 7 10 12 12 13 15 14 11 9 9 10 10 10 8
9 9 11 12 12 8 8 9 9 9 10 11 12 17 15 9 7 8 10 8 9 9
8 7 9 8 8 8 8 8 7 9 10 11 11 20 19 11 5 8 5 6 8 14
6 8 9 9 8 7 7 7 8 9 9 9 11 13 18 17 7 6 5 6 7 7
Wind_Direction
309 301 296 295 258 209 208 213 209 211 220 222 218 218 220 223 219 215 217 228 229 230
310 303 293 293 296 243 221 224 204 208 214 218 222 221 216 217 223 217 221 224 224 234
313 304 294 282 269 277 216 192 209 209 221 222 220 221 219 219 228 226 228 225 228 232
333 321 311 266 266 248 212 201 212 218 224 229 243 254 234 231 234 226 228 231 225 240
359 3 7 20 14 12 85 57 69 75 71 58 43 31 38 47 39 59 60 41 60 40
15 24 27 26 29 43 63 70 67 65 64 55 49 42 42 45 51 58 58 52 49 42
25 29 33 36 34 39 55 73 71 69 70 57 53 48 51 58 60 59 57 56 57 49
28 42 40 43 45 41 44 53 62 74 69 58 51 40 61 65 67 69 72 64 66 51
37 47 48 48 46 51 48 44 48 55 58 63 56 48 46 67 75 72 70 63 64 53
21 35 52 60 57 44 39 56 52 40 63 57 61 52 48 51 66 65 65 59 50 39
41 33 42 58 58 47 44 61 72 57 58 58 55 58 62 59 72 75 68 57 46 41
66 55 49 58 67 62 69 66 63 60 56 57 54 50 55 65 69 69 61 53 42 34
67 72 72 77 80 75 74 78 80 74 59 51 46 42 43 46 55 62 52 48 35 30
59 66 67 68 62 68 71 69 64 63 57 53 44 43 43 44 50 51 51 40 28 17